Location: York
(31.8935°S, 116.7682°E)
Time: 08:20:52
(UTC+08:00)

N. Korean satellite - Pass Details

Date: 16 May 2021
Orbit: 450 x 500 km, 97.2° (Epoch: 13 June)

Event Time Altitude Azimuth Distance (km) Brightness Sun altitude
Rises 05:17:14 0° 355° (N) 2,469 10.2 -20.7°
Reaches altitude 10° 05:19:20 10° 346° (NNW) 1,612 9.2 -20.3°
Enters shadow 05:19:58 14° 341° (NNW) 1,372 8.7 -20.1°
